[[{"header":{"parameterUnit":"m.s-1","parameterCategory":1,"la1":30.2991,"la2":30.254,"lo1":-89.0895,"lo2":-89.0444,"dy":0.0017,"dx":0.0017,"nx":28,"ny":28,"refTime":"2023-08-14T21:00:00:Z","depth":0,"parameterNumber":2,"parameterNumberName":"U-component_of_WINDS"},"data":[0,0,0,0,0,0,0,0,0,0,0,0,0,0,0,0,0,0,0,0,0,0,0,0,0,0,0,0,0,0,0,0,0,0,0,0,0,0,0,0,0,0,0,0,0,0,0,0,0,0,0,0,0,0,0,0,0,0,-0.1596,-0.1595,0,-0.1499,-0.1498,-0.1496,-0.1365,-0.1362,-0.136,-0.1358,-0.1258,-0.1258,-0.1257,0,0,0,0,0,0,0,0,0,0,0,0,0,-0.1669,-0.1668,-0.1596,-0.1595,-0.1594,-0.1499,-0.1497,-0.1496,-0.1365,-0.1362,-0.136,-0.1357,-0.1259,-0.1258,-0.1257,0,0,0,0,0,0,0,0,0,0,0,0,0,-0.1611,-0.1668,-0.1597,-0.1517,-0.1509,-0.1499,-0.1497,-0.1496,-0.1366,-0.1362,-0.1359,-0.1356,-0.1259,-0.1258,-0.1257,-0.1317,0,0,-0.1254,-0.1254,0,0,0,0,0,0,0,0,-0.1614,-0.1608,-0.153,-0.1523,-0.1513,-0.144,-0.1486,-0.1436,-0.1366,-0.142,-0.1358,-0.1354,-0.1322,-0.1315,-0.1304,-0.1313,-0.1309,-0.1254,-0.1254,-0.1253,-0.1253,0,0,0,0,0,0,0,-0.1618,-0.1612,-0.1558,-0.1529,-0.1519,-0.1486,-0.1474,-0.1476,-0.1391,-0.1415,-0.1405,-0.1396,-0.1316,-0.1306,-0.1301,-0.1307,-0.1254,-0.1253,-0.1253,-0.1253,-0.1359,-0.1362,0,0,0,0,0,0,-0.1634,-0.1616,-0.1561,-0.1555,-0.1557,-0.1487,-0.1474,-0.1467,-0.139,-0.1375,-0.1398,-0.139,-0.1309,-0.1302,-0.1297,-0.1362,-0.1253,-0.1252,-0.1252,-0.1355,-0.1359,-0.1363,0,0,0,0,0,0,-0.1636,-0.1631,-0.1565,-0.1583,-0.1572,-0.149,-0.1483,-0.1467,-0.1456,-0.1378,-0.1362,-0.1403,-0.1306,-0.1298,-0.1313,-0.1357,-0.1252,-0.1251,-0.1351,-0.1357,-0.1361,-0.1494,0,0,0,0,0,0,-0.1639,-0.1632,-0.1655,-0.1584,-0.1571,-0.1583,-0.1486,-0.1467,-0.1455,-0.1442,-0.1378,-0.1364,-0.1303,-0.1315,-0.1312,-0.1354,-0.125,-0.1347,-0.1354,-0.136,-0.1485,-0.1503,-0.1518,0,0,0,0,0,-0.1642,-0.1696,-0.1657,-0.1651,-0.1598,-0.1586,-0.1579,-0.1507,-0.1459,-0.148,-0.143,-0.1366,-0.1352,-0.1318,-0.1313,-0.1355,-0.1344,-0.1352,-0.1359,-0.1478,-0.1499,-0.1517,0,0,0,0,0,0,-0.1775,-0.1686,-0.1641,-0.1673,-0.1638,-0.1564,-0.1589,-0.1532,-0.151,-0.15,-0.1412,-0.1398,-0.1424,-0.1391,-0.1354,-0.1409,-0.1338,-0.1346,-0.143,-0.145,-0.1466,-0.1474,-0.125,0,0,0,0,0,-0.1807,-0.1806,-0.1728,-0.1764,-0.1749,-0.1673,-0.1665,-0.1612,-0.1572,-0.1557,-0.1507,-0.1471,-0.1458,-0.1452,-0.1436,-0.1479,-0.1463,-0.1505,-0.1522,-0.1535,-0.1543,-0.1562,-0.158,-0.1388,-0.1388,-0.1388,0,0,-0.1876,-0.1827,-0.1831,-0.179,-0.1756,-0.1756,-0.1661,-0.1665,-0.1664,-0.1557,-0.1568,-0.1531,-0.1484,-0.1513,-0.1524,-0.1486,-0.1592,-0.1545,-0.1557,-0.1556,-0.1572,-0.159,-0.1607,-0.1393,-0.1392,-0.1391,0,0,-0.2,-0.1963,-0.1989,-0.1957,-0.1907,-0.1856,-0.1863,-0.1796,-0.1767,-0.1776,-0.1697,-0.1694,-0.1674,-0.1644,-0.1626,-0.1737,-0.1678,-0.1734,-0.182,-0.184,-0.1855,-0.1868,-0.1908,-0.1923,-0.1742,-0.1742,-0.1742,0,-0.2091,-0.2088,-0.201,-0.2018,-0.2002,-0.1905,-0.1931,-0.1904,-0.1852,-0.1843,-0.1801,-0.1774,-0.1736,-0.1756,-0.1783,-0.1772,-0.1776,-0.1742,-0.1859,-0.1872,-0.1883,-0.192,-0.1935,-0.175,-0.1749,-0.1748,-0.1747,0,-0.2202,-0.2201,-0.2228,-0.218,-0.2166,-0.2184,-0.2108,-0.2104,-0.2052,-0.2005,-0.2015,-0.1966,-0.1938,-0.1939,-0.1889,-0.1952,-0.193,-0.1876,-0.1803,-0.191,-0.1943,-0.1956,-0.176,-0.1757,-0.1755,-0.1753,0,0,-0.2409,-0.2316,-0.2327,-0.2304,-0.2241,-0.2239,-0.2251,-0.2223,-0.2222,-0.2188,-0.2196,-0.2181,-0.213,-0.211,-0.2055,-0.2073,-0.2164,-0.2015,-0.2013,-0.2045,-0.223,-0.2272,-0.229,-0.2123,-0.2126,-0.2128,-0.2234,0,-0.2521,-0.2537,-0.2467,-0.2501,-0.2499,-0.2406,-0.2417,-0.238,-0.2336,-0.2327,-0.2277,-0.2268,-0.2201,-0.2188,-0.2201,-0.215,-0.22,-0.2141,-0.213,-0.213,-0.2145,-0.2307,-0.2351,-0.2454,-0.2246,-0.2248,-0.225,0,-0.2655,-0.2629,-0.2664,-0.2598,-0.2595,-0.2606,-0.2574,-0.2567,-0.2522,-0.2489,-0.2466,-0.2403,-0.2409,-0.234,-0.2348,-0.2309,-0.23,-0.2274,-0.2276,-0.2273,-0.2198,-0.2309,-0.2485,-0.2501,-0.227,-0.2268,-0.2267,0,-0.2803,-0.2776,-0.2793,-0.2776,-0.27,-0.271,-0.2679,-0.263,-0.2618,-0.259,-0.2581,-0.2555,-0.2541,-0.2521,-0.2452,-0.2408,-0.2468,-0.2393,-0.244,-0.2442,-0.2458,-0.2458,-0.2637,-0.2452,-0.2452,-0.2451,-0.2451,0,-0.2936,-0.2961,-0.2858,-0.2869,-0.2893,-0.2811,-0.2838,-0.2797,-0.2755,-0.2756,-0.2674,-0.2676,-0.2584,-0.2576,-0.2522,-0.2537,-0.2531,-0.2504,-0.2489,-0.2512,-0.2515,-0.2505,-0.2496,-0.2455,-0.2454,-0.2454,-0.2453,0,-0.3106,-0.3037,-0.305,-0.2977,-0.2959,-0.298,-0.2917,-0.2924,-0.2874,-0.2876,-0.2872,-0.2794,-0.278,-0.2709,-0.2678,-0.2642,-0.2675,-0.2646,-0.2691,-0.2681,-0.2733,-0.273,-0.2912,-0.2931,-0.2734,-0.2736,-0.2738,0,-0.3196,-0.3212,-0.3141,-0.3136,-0.3108,-0.3101,-0.3087,-0.3007,-0.2996,-0.2946,-0.2958,-0.2938,-0.2917,-0.2899,-0.284,-0.2816,-0.2785,-0.2851,-0.2781,-0.2803,-0.2786,-0.2787,-0.2788,-0.2866,-0.2869,-0.2871,-0.2872,0,-0.3363,-0.3328,-0.3312,-0.3285,-0.3271,-0.3245,-0.3214,-0.3215,-0.3125,-0.3117,-0.3102,-0.3086,-0.3055,-0.3035,-0.3001,-0.2968,-0.2906,-0.2895,-0.2904,-0.2928,-0.2953,-0.294,-0.2732,-0.2891,-0.2889,-0.2888,-0.2887,-0.2886,-0.3495,-0.3506,-0.3457,-0.3442,-0.341,-0.3383,-0.3385,-0.3335,-0.3321,-0.329,-0.3242,-0.3234,-0.3187,-0.3134,-0.3106,-0.3098,-0.3062,-0.3077,-0.308,-0.3085,-0.3097,-0.2954,-0.3091,-0.3091,-0.309,-0.3089,-0.3089,0,-0.3658,-0.3622,-0.3609,-0.3568,-0.3556,-0.3498,-0.3461,-0.3454,-0.3448,-0.341,-0.3391,-0.3373,-0.3353,-0.3292,-0.3265,-0.327,-0.3241,-0.3266,-0.3266,-0.3259,-0.313,-0.3124,-0.3291,-0.329,-0.329,-0.329,-0.329,-0.329,-0.3742,-0.3756,-0.3716,-0.3713,-0.3676,-0.3667,-0.3651,-0.3625,-0.3594,-0.3578,-0.3561,-0.3521,-0.3473,-0.3443,-0.3422,-0.3404,-0.3398,-0.3433,-0.3407,-0.3287,-0.3268,-0.325,-0.3244,-0.3433,-0.3433,-0.3536,-0.3537,-0.3538]},{"header":{"parameterUnit":"m.s-1","parameterCategory":1,"la1":30.2991,"la2":30.254,"lo1":-89.0895,"lo2":-89.0444,"dy":0.0017,"dx":0.0017,"nx":28,"ny":28,"refTime":"2023-08-14T21:00:00:Z","depth":0,"parameterNumber":3,"parameterNumberName":"V-component_of_WINDS"},"data":[0,0,0,0,0,0,0,0,0,0,0,0,0,0,0,0,0,0,0,0,0,0,0,0,0,0,0,0,0,0,0,0,0,0,0,0,0,0,0,0,0,0,0,0,0,0,0,0,0,0,0,0,0,0,0,0,0,0,2.1717,2.1716,0,2.1579,2.1577,2.1576,2.1458,2.1457,2.1455,2.1454,2.131,2.1307,2.1305,0,0,0,0,0,0,0,0,0,0,0,0,0,2.1876,2.1874,2.1717,2.1716,2.1714,2.1579,2.1577,2.1575,2.1458,2.1457,2.1455,2.1454,2.1311,2.1308,2.1304,0,0,0,0,0,0,0,0,0,0,0,0,0,2.1779,2.1873,2.1718,2.1639,2.1631,2.158,2.1577,2.1575,2.1459,2.1457,2.1455,2.1453,2.1312,2.1308,2.1304,2.1318,0,0,2.1292,2.129,0,0,0,0,0,0,0,0,2.1785,2.1774,2.1653,2.1645,2.1635,2.1534,2.158,2.1489,2.1459,2.1524,2.1454,2.1452,2.1386,2.1376,2.1354,2.1312,2.1305,2.1291,2.1289,2.1287,2.1286,0,0,0,0,0,0,0,2.1792,2.1779,2.1662,2.1651,2.164,2.161,2.1594,2.1562,2.1467,2.1518,2.1509,2.1495,2.138,2.1358,2.1349,2.1303,2.1292,2.1288,2.1286,2.1284,2.1261,2.1262,0,0,0,0,0,0,2.1811,2.1785,2.1667,2.1658,2.1707,2.1608,2.1591,2.1568,2.1467,2.145,2.1496,2.149,2.1366,2.1354,2.1344,2.1349,2.1287,2.1284,2.1281,2.1259,2.1261,2.1263,0,0,0,0,0,0,2.1815,2.1802,2.1672,2.1719,2.1701,2.1608,2.1584,2.1567,2.1544,2.1451,2.1433,2.1491,2.1364,2.135,2.1325,2.1343,2.1282,2.1278,2.1257,2.126,2.1262,2.1364,0,0,0,0,0,0,2.182,2.1804,2.1809,2.172,2.1699,2.1657,2.1585,2.1565,2.1537,2.1527,2.1441,2.1425,2.1361,2.1331,2.1321,2.1337,2.1275,2.1255,2.1258,2.1261,2.1359,2.137,2.138,0,0,0,0,0,2.1826,2.1844,2.181,2.1797,2.1704,2.1658,2.1646,2.1573,2.154,2.1543,2.1483,2.1428,2.1344,2.133,2.1317,2.1332,2.1253,2.1257,2.1261,2.1354,2.1368,2.138,0,0,0,0,0,0,2.1937,2.1831,2.1792,2.1782,2.173,2.1639,2.1641,2.159,2.1546,2.1538,2.1449,2.143,2.1414,2.1371,2.1357,2.1338,2.1291,2.1292,2.1366,2.1378,2.1389,2.1397,2.1272,0,0,0,0,0,2.1961,2.1934,2.1843,2.1843,2.1818,2.1735,2.1712,2.1661,2.1602,2.158,2.1518,2.1463,2.1423,2.1399,2.1359,2.1354,2.133,2.1357,2.1368,2.1377,2.1378,2.1367,2.1377,2.1276,2.1276,2.1276,0,0,2.2009,2.1948,2.1936,2.1863,2.1817,2.1788,2.1717,2.1691,2.1668,2.1575,2.1546,2.15,2.1432,2.1416,2.1406,2.138,2.1401,2.1382,2.139,2.1386,2.1372,2.1382,2.139,2.1279,2.1278,2.1278,0,0,2.208,2.2034,2.2026,2.1981,2.1911,2.1855,2.1854,2.1769,2.1734,2.1705,2.1633,2.1605,2.1541,2.1494,2.1462,2.1515,2.146,2.1504,2.1557,2.1548,2.1556,2.1562,2.1577,2.1583,2.1507,2.1507,2.1507,0,2.2148,2.2104,2.2028,2.2006,2.1974,2.189,2.1879,2.1839,2.176,2.1739,2.1712,2.1627,2.1576,2.1545,2.1558,2.1537,2.1529,2.1511,2.1561,2.1567,2.1572,2.1584,2.159,2.1512,2.1512,2.1511,2.1511,0,2.2188,2.2159,2.2161,2.2085,2.2055,2.2039,2.1959,2.1937,2.1889,2.1835,2.1804,2.174,2.1682,2.1672,2.1625,2.1634,2.1619,2.1579,2.1528,2.1588,2.1598,2.1602,2.152,2.1518,2.1516,2.1515,0,0,2.2323,2.2206,2.2208,2.2171,2.2088,2.2063,2.2043,2.1987,2.1967,2.1916,2.1894,2.1841,2.1801,2.1765,2.1712,2.1704,2.1744,2.1663,2.166,2.1676,2.1745,2.1773,2.178,2.171,2.171,2.1711,2.1749,0,2.2377,2.2335,2.2266,2.2246,2.2215,2.2135,2.2116,2.2062,2.2012,2.1977,2.1921,2.1883,2.1837,2.1813,2.1803,2.1742,2.1756,2.1739,2.1684,2.1683,2.1698,2.1786,2.1816,2.1854,2.1753,2.1753,2.1754,0,2.2434,2.2386,2.2363,2.2279,2.2264,2.2249,2.219,2.216,2.2096,2.2059,2.2019,2.196,2.1932,2.189,2.1847,2.1836,2.181,2.1777,2.1777,2.1765,2.1719,2.1771,2.1865,2.187,2.176,2.1759,2.1759,0,2.2528,2.2459,2.2434,2.2407,2.231,2.23,2.2259,2.2194,2.2164,2.2113,2.2092,2.2039,2.2009,2.1968,2.1896,2.1873,2.1859,2.1812,2.1825,2.1826,2.1822,2.1822,2.1908,2.1814,2.1814,2.1814,2.1814,0,2.2593,2.258,2.2475,2.246,2.2443,2.2364,2.2348,2.23,2.2242,2.2214,2.2143,2.2118,2.2027,2.199,2.1934,2.1904,2.1893,2.186,2.1844,2.1863,2.1867,2.1841,2.1835,2.1815,2.1815,2.1814,2.1814,0,2.2693,2.2623,2.259,2.2502,2.2479,2.247,2.2392,2.2373,2.232,2.2285,2.2272,2.2186,2.214,2.2065,2.1997,2.1959,2.1937,2.1914,2.1959,2.1948,2.1963,2.1961,2.2032,2.2035,2.1944,2.1945,2.1946,0,2.2736,2.2725,2.2635,2.2611,2.2572,2.2536,2.2505,2.2427,2.2397,2.2322,2.2311,2.226,2.2213,2.2142,2.2072,2.2019,2.1991,2.202,2.1982,2.2001,2.1985,2.1985,2.1981,2.2027,2.2028,2.203,2.203,0,2.2819,2.2784,2.2743,2.2688,2.2653,2.2607,2.2556,2.2541,2.2451,2.2421,2.2372,2.2337,2.2266,2.2214,2.2151,2.2106,2.2052,2.2044,2.2042,2.206,2.2084,2.2066,2.1977,2.2041,2.204,2.2039,2.2039,2.2038,2.2888,2.2872,2.2806,2.2761,2.2715,2.2669,2.2646,2.2589,2.2548,2.2484,2.2441,2.2394,2.2328,2.2238,2.2196,2.2157,2.2133,2.2133,2.2132,2.2132,2.2138,2.2094,2.2146,2.2145,2.2145,2.2145,2.2144,0,2.2962,2.2916,2.2876,2.2807,2.2771,2.2726,2.2667,2.2639,2.26,2.2544,2.2499,2.2442,2.2391,2.2318,2.226,2.2243,2.2216,2.223,2.2228,2.2218,2.2164,2.2169,2.2252,2.2252,2.2252,2.2252,2.2252,2.2252,2.2996,2.2966,2.2924,2.2869,2.2822,2.2776,2.2746,2.2703,2.2657,2.2596,2.2554,2.2507,2.2443,2.238,2.233,2.2309,2.2289,2.231,2.2282,2.2232,2.2222,2.2212,2.2216,2.2308,2.2308,2.2337,2.2337,2.2338]}]]